This demonstration page uses our WeatherBlox Daily Observations layout. Learn more.

Left ArrowRight Arrow

39.92423, -83.80882

Hourly Observations for April 28, 2022

Temp ( °F °C ) Dew Point ( °F °C ) Humidity (%) Winds ( mph kmh ) Pressure ( in mb ) Visibility ( mi km ) Precip ( " mm )
12:56 am 00:56 Mostly Cloudy 40 4.4 34 1.1 79 79 NE 13 20 30.29 1026 10 16 0.00 0.00
1:56 am 01:56 Cloudy 39 3.9 31 -0.6 73 73 NE 14 22 30.29 1026 10 16 0.00 0.00
2:56 am 02:56 Cloudy 39 3.9 30 -1.1 70 70 NE 13 20 30.31 1027 10 16 0.00 0.00
3:56 am 03:56 Mostly Cloudy 38 3.3 29 -1.7 70 70 ENE 16 26 30.29 1026 10 16 0.00 0.00
4:56 am 04:56 Cloudy 37 2.8 29 -1.7 73 73 E 9 15 30.30 1026 10 16 0.00 0.00
5:56 am 05:56 Cloudy 36 2.2 26 -3.3 67 67 E 9 15 30.30 1026 10 16 0.00 0.00
6:56 am 06:56 Partly Cloudy 35 1.7 27 -2.8 72 72 ESE 8 13 30.33 1027 10 16 0.00 0.00
7:56 am 07:56 Cloudy 37 2.8 27 -2.8 67 67 E 10 17 30.35 1028 10 16 0.00 0.00
8:56 am 08:56 Cloudy 39 3.9 27 -2.8 62 62 E 12 19 30.35 1028 10 16 0.00 0.00
9:56 am 09:56 Cloudy 42 5.6 28 -2.2 58 58 E 10 17 30.35 1028 10 16 0.00 0.00
10:56 am 10:56 Cloudy 44 6.7 28 -2.2 53 53 E 10 17 30.35 1028 10 16 0.00 0.00
11:56 am 11:56 Cloudy 46 7.8 29 -1.7 51 51 ESE 10 17 30.34 1028 10 16 0.00 0.00
12:56 pm 12:56 Cloudy 48 8.9 29 -1.7 48 48 E 8 13 30.34 1027 10 16 0.00 0.00
1:56 pm 13:56 Cloudy 51 10.6 29 -1.7 43 43 SE 6 9 30.30 1026 10 16 0.00 0.00
2:56 pm 14:56 Cloudy 54 12.2 30 -1.1 40 40 ENE 7 11 30.27 1025 10 16 0.00 0.00
3:56 pm 15:56 Mostly Cloudy 55 12.8 28 -2.2 35 35 VRB 6 9 30.25 1024 10 16 0.00 0.00
4:56 pm 16:56 Cloudy 55 12.8 27 -2.8 34 34 E 6 9 30.24 1024 10 16 0.00 0.00
5:56 pm 17:56 Cloudy 55 12.8 29 -1.7 37 37 ENE 6 9 30.24 1024 10 16 0.00 0.00
6:56 pm 18:56 Cloudy 53 11.7 31 -0.6 43 43 E 8 13 30.23 1024 10 16 0.00 0.00
7:56 pm 19:56 Cloudy 52 11.1 31 -0.6 45 45 SE 5 7 30.22 1023 7 11 0.00 0.00
8:56 pm 20:56 Cloudy 52 11.1 30 -1.1 43 43 S 3 6 30.23 1024 10 16 0.00 0.00
9:56 pm 21:56 Cloudy 50 10 33 0.6 52 52 E 6 9 30.23 1024 10 16 0.00 0.00
10:56 pm 22:56 Cloudy 49 9.4 35 1.7 59 59 E 5 7 30.23 1024 10 16 0.00 0.00
11:56 pm 23:56 Cloudy 48 8.9 36 2.2 63 63 ESE 6 9 30.21 1023 9 14 0.00 0.00

Powered by AerisWeather